sat.trackr.live / text

‹ back to catalog

STARLINK-35489

NORAD 65857 · 2025-223D

PAYLOAD ACTIVE UNKNOWN

§ Identity

Operator
Country
US
Launch date
2025-10-03
Launch site
AFWTR
Launch vehicle
Mass (kg)
RCS (m²)

Purposes: comms

External: N2YO · Heavens-Above · Gunter

§ Orbital elements

Epoch: 2026-09-20T21:25:54.500160Z

Period
93.85 min
Inclination
53.1537°
Eccentricity
0.0002576
Mean motion
15.34413230 rev/d
Perigee alt
460.9 km
Apogee alt
464.4 km
Semi-major
6,840.8 km
B*
5.9595e-4
RAAN
103.8226°
Arg perigee
100.9996°
Mean anomaly
259.1296°
Rev number
5,414

§ Raw data

STARLINK-354891 65857U 25223D   26263.89299190  .00019821  00000+0  59595-3 0  99972 65857  53.1537 103.8226 0002576 100.9996 259.1296 15.34413230 54147

JSON: /api/v1/satellites/65857 · /tle

For live sub-satellite position, see the globe view (requires WebGL).

§ Visibility from observer

Set your observer location to see the next 7 days of passes ≥ 10°. The values pass through the URL so the page stays shareable.

No JS? Fill the form by hand. The geolocation button needs JavaScript.